sat.trackr.live / text

‹ back to catalog

GLOBALSTAR M073

NORAD 37193 · 2010-054F

PAYLOAD ACTIVE UNKNOWN

§ Identity

Operator
Country
GLOB
Launch date
2010-10-19
Launch site
TYMSC
Launch vehicle
Mass (kg)
RCS (m²)
4.69

Purposes: comms

External: N2YO · Heavens-Above · Gunter

§ Orbital elements

Epoch: 2026-05-25T05:28:58.810080Z

Period
114.08 min
Inclination
52.0034°
Eccentricity
0.0000395
Mean motion
12.62267119 rev/d
Perigee alt
1,413.3 km
Apogee alt
1,413.9 km
Semi-major
7,791.7 km
B*
5.7127e-5
RAAN
134.1779°
Arg perigee
358.0086°
Mean anomaly
14.9684°
Rev number
72,103

§ Raw data

GLOBALSTAR M0731 37193U 10054F   26145.22845845 -.00000094  00000+0  57127-4 0  99982 37193  52.0034 134.1779 0000395 358.0086  14.9684 12.62267119721030

JSON: /api/v1/satellites/37193 · /tle

For live sub-satellite position, see the globe view (requires WebGL).

§ Visibility from observer

Set your observer location to see the next 7 days of passes ≥ 10°. The values pass through the URL so the page stays shareable.

No JS? Fill the form by hand. The geolocation button needs JavaScript.